Regional Weather Roundup
Issued by NWS Kansas City/Pleasant Hill, MO

Home | Current Version | Previous Version | Graphics & Text | Print | Product List | Glossary Off
Versions: 1 2 3 4 5 6 7 8 9 10 11 12 13 14 15 16 17 18 19 20 21 22 23 24 25 26 27 28 29 30 31 32 33 34 35 36 37 38 39 40 41 42 43 44 45 46 47 48 49 50

000
ASUS43 KEAX 250010
RWREAX

WEATHER ROUNDUP FOR EASTERN KANSAS AND NORTHWEST MISSOURI
NATIONAL WEATHER SERVICE KANSAS CITY/PLEASANT HILL MO
700 PM CDT WED MAY 24 2017

KSZ040-057-103>105-MOZ028-029-037-043-250100-
...KANSAS CITY METROPOLITAN AREA...

CITY           SKY/WX    TMP DP  RH WIND       PRES   REMARKS
K.C. INTL      MOSUNNY   65  49  56 N9        29.67S
6HR MIN TEMP:  61; 6HR MAX TEMP:  66;

K.C. DOWNTOWN  SUNNY     67  47  48 NW7       29.66S
6HR MIN TEMP:  61; 6HR MAX TEMP:  68;

LEES SUMMIT    MOSUNNY   65  49  56 N10       29.67S
6HR MIN TEMP:  58; 6HR MAX TEMP:  67;

OLATHE - IXD   MOSUNNY   61  48  62 N7        29.68S
6HR MIN TEMP:  60; 6HR MAX TEMP:  67;

OLATHE - OJC   SUNNY     65  48  54 N10       29.67F
6HR MIN TEMP:  59; 6HR MAX TEMP:  65;

LAWRENCE       PTSUNNY   67  49  52 N5        29.68S

$$

MOZ001>008-011>017-020>025-030>033-038>040-044>046-053-054-250100-
...NORTHERN AND CENTRAL MISSOURI...

CITY           SKY/WX    TMP DP  RH WIND       PRES   REMARKS
ST. JOSEPH     MOSUNNY   66  50  56 NE7       29.67F
6HR MIN TEMP:  62; 6HR MAX TEMP:  69;

WARRENSBURG    CLOUDY    59  52  77 N3        29.67S
WHITEMAN AFB   PTSUNNY   58  58 100 NE3       29.66S
6HR MIN TEMP:  56; 6HR MAX TEMP:  65; 6HR PCP:  0.12;

CLINTON        PTSUNNY   59  54  82 NW5       29.68S
SEDALIA        CLOUDY    63  50  62 N14       29.66S
6HR MIN TEMP:  59; 6HR MAX TEMP:  68; 6HR PCP:  0.01;

WARSAW         NOT AVBL
CHILLICOTHE      N/A     66  49  54 N7        29.66S
6HR MIN TEMP:  56; 6HR MAX TEMP:  67; 6HR PCP:  0.06;

KIRKSVILLE     MOSUNNY   59  52  77 N5        29.65S
6HR MIN TEMP:  55; 6HR MAX TEMP:  64; 6HR PCP:  0.19;


$$

MOZ041-047>049-056>058-063>065-088>090-097-250100-
...EASTERN AND SOUTHERN MISSOURI...

CITY           SKY/WX    TMP DP  RH WIND       PRES   REMARKS
ST. LOUIS INTL PTSUNNY   65  48  54 NW9       29.58R
6HR MIN TEMP:  64; 6HR MAX TEMP:  71;

SPIRIT OF STL  MOSUNNY   65  50  58 W13       29.57S
COLUMBIA       PTSUNNY   64  51  62 NW13      29.63R
JEFFERSON CITY MOSUNNY   67  45  45 NW10      29.62R
ROLLA          SUNNY     62  46  55 NW8       29.61R
OSAGE BEACH    CLOUDY    62  49  62 W6        29.65R
SPRINGFIELD    PTSUNNY   58  52  80 NW8       29.67S
BRANSON        LGT RAIN  55  52  88 NW10G18   29.70R
JOPLIN         CLOUDY    66  51  58 NW6       29.69S
WEST PLAINS    SUNNY     60  47  61 NW10      29.65R

$$

IAZ060-094-KSZ022-034>040-054-083-096-NEZ052-066-093-250100-
...KANSAS...SOUTHEAST NEBRASKA AND IOWA...

CITY           SKY/WX    TMP DP  RH WIND       PRES   REMARKS
TOPEKA         CLOUDY    69  48  47 N7        29.68S
6HR MIN TEMP:  64; 6HR MAX TEMP:  69;

MANHATTAN      SUNNY     66  51  58 CALM      29.69S
EMPORIA        SUNNY     66  47  50 CALM      29.69F
CHANUTE        MOSUNNY   67  45  45 NW13      29.69S
WICHITA        MOSUNNY   66  43  43 CALM      29.70F
OMAHA          MOSUNNY   69  43  38 CALM      29.67F
LINCOLN        SUNNY     68  42  38 S3        29.67F
FALLS CITY     SUNNY     66  45  46 NW6       29.67S
LAMONI         MOSUNNY   63  49  60 N6        29.66F
DES MOINES     PTSUNNY   62  48  60 NE10      29.66S

$$




USA.gov is the U.S. government's official web portal to all federal, state and local government web resources and services.